User: anonymous   Login
Location: Colossi of Memnon
(25.7167°N, 32.6167°E)
Time: 04:46:04
(UTC+00:00)
Language:

Hubble Space Telescope - Orbit

View from above orbital plane
View from above orbital plane
View from above satellite
View from above satellite

Ground track
Ground track

The orbit data is extracted from the following two-line orbital elements,

1 20580U 90037B   21293.32983755  .00000955  00000-0  46643-4 0  9999
2 20580  28.4709 318.7328 0002531 333.2726 140.4786 15.09788938529886
Epoch (UTC): 20 October 2021 07:54:57
Eccentricity: 0.0002531
inclination: 28.4709°
perigee height: 535 km
apogee height: 538 km
right ascension of ascending node: 318.7328°
argument of perigee: 333.2726°
revolutions per day: 15.09788938
mean anomaly at epoch: 140.4786°
orbit number at epoch: 52988

The dashed part of the orbit path shows where the satellite is in the earth's shadow,  

DLR